FORMOSAT7-4/COSMIC2-4

导读

FORMOSAT7-4,又称COSMIC2-4,隶属于福尔摩沙卫星七号(福卫七号)系统,是中国台湾地区与美国合作研发的气象卫星星座的第四颗卫星,于2019年6月25日发射升空。福卫七号共包含6颗卫星,接替福卫三号任务,主要用于提升天气预报精度,监测太空天气,支撑气候变迁研究,其数据收集量远超前代,且不受地形天候限制,能增强台风、强降雨等灾害预报能力。

基本信息
目录编号:
44350
目录名称:
FORMOSAT7-4/COSMIC2-4
国际标识:
2019-036M
轨道中心:
EARTH
卫星名称:
FORMOSAT7-4/COSMIC2-4
卫星全名:
--
卫星状态:
在轨 (已飞行2628 天)
发射日期:
2019-06-25 UTC
国别 :
(TW)
星等 :
--
轨道信息
数据来源 国际轨道数据 AOE轨道数据
星历时间 2026-09-04T17:47:37+0800
13小时前
查看轨道信息
2026-08-30T08:00:00+0800
5天前
查看轨道信息
半长轴 6954.977km 6955.042km
偏心率 0.0001331 0.0001055
轨道倾角 23.998° 23.999°
近地点辐角 51.601° 348.512°
升交点赤经 280.300° 316.773°
平近点角 308.461° 327.384°
近地点 575.914km 576.171km
远地点 577.766km 577.639km
周期 96.206分钟 96.208分钟
每日圈数 14.967845 14.967635
详细信息
使用方式:
暂无
2D轨道图
3D轨道图
轨道高度分析图
轨道倾角分析图
轨道综合分析图
查看轨道综合分析图
交会数据列表
事件ID 空间交会对象 最接近时刻(TCA) 交会距离 交会风险概率(CRP) 交会风险指数(CRI) 操作
CDM_260828-235003-920504-435024
2026-08-28T
23:50:05+0000
0.789 km
远距离
4.888231E-5 中风险 0.69
CDM_260906-224004-435006-710121
2026-09-06T
22:40:29+0000
2.095 km
极远距离
1.470951E-6 低风险 0.38